LHA8736 CYYC-KSJC

Flight info

Callsign LHA8736
Flight time 2h 3m
Altitude 38000
Route DUMRA Q890 ROPLA DCT ONEAL J537 REO J7 GASSI/N0481F400 J7 FMG DCT CARVV DCT TIPRE RISTI1
Aircraft B77W/H-SDE1E2FGIJ1RWYZ/S

Departure

Time 2026-05-04 11:19
Airport Calgary International Airport (CYYC)

Arrival

Time 2026-05-04 13:23
Airport Norman Y. Mineta San Jose International Airport (KSJC)
Time Latitude Longitude Altitude Speed Heading
2026-05-04 10:37 51.12824 -114.00308 3559 ft 0 kts 268°
2026-05-04 11:05 51.12827 -114.00165 3554 ft 0 kts 268°
2026-05-04 11:10 51.12808 -114.00180 3560 ft 3 kts 173°
2026-05-04 11:12 51.12614 -113.99499 3559 ft 9 kts 98°
2026-05-04 11:12 51.12569 -113.99441 3559 ft 9 kts 177°
2026-05-04 11:12 51.12495 -113.99442 3558 ft 15 kts 180°
2026-05-04 11:12 51.12352 -113.99441 3563 ft 23 kts 179°
2026-05-04 11:13 51.12190 -113.99439 3555 ft 23 kts 181°
2026-05-04 11:13 51.12028 -113.99444 3554 ft 23 kts 181°
2026-05-04 11:13 51.11866 -113.99446 3553 ft 23 kts 180°
2026-05-04 11:13 51.11704 -113.99446 3554 ft 23 kts 180°
2026-05-04 11:14 51.11684 -113.99446 3552 ft 23 kts 180°
2026-05-04 11:16 51.11112 -113.99447 3548 ft 12 kts 180°
2026-05-04 11:16 51.11044 -113.99411 3545 ft 10 kts 129°
2026-05-04 11:16 51.11034 -113.99291 3544 ft 12 kts 91°
2026-05-04 11:17 51.11033 -113.99151 3543 ft 12 kts 89°
2026-05-04 11:17 51.11040 -113.99048 3543 ft 6 kts 58°
2026-05-04 11:19 51.12604 -113.99033 3558 ft 168 kts
2026-05-04 11:19 51.13847 -113.99020 3958 ft 185 kts 359°
2026-05-04 11:19 51.15162 -113.99053 4617 ft 193 kts 358°
2026-05-04 11:19 51.16495 -113.99124 5447 ft 189 kts 356°
2026-05-04 11:20 51.17810 -113.99225 6180 ft 190 kts 355°
2026-05-04 11:20 51.19144 -113.99376 6816 ft 196 kts 354°
2026-05-04 11:20 51.20547 -113.99587 7294 ft 209 kts 352°
2026-05-04 11:20 51.22011 -113.99859 7968 ft 213 kts 351°
2026-05-04 11:22 51.32498 -114.05996 11527 ft 311 kts 301°
2026-05-04 11:22 51.33179 -114.09397 12157 ft 333 kts 280°
2026-05-04 11:23 51.32991 -114.13186 13102 ft 351 kts 259°
2026-05-04 11:23 51.31890 -114.16754 14154 ft 368 kts 239°
2026-05-04 11:24 51.15293 -114.21825 19032 ft 455 kts 183°
2026-05-04 11:25 51.12108 -114.21827 19848 ft 459 kts 185°
2026-05-04 11:25 51.08925 -114.21918 20678 ft 462 kts 186°
2026-05-04 11:25 51.05762 -114.22069 21467 ft 466 kts 187°
2026-05-04 11:26 50.99214 -114.22463 22972 ft 477 kts 187°
2026-05-04 11:27 50.75112 -114.23889 27088 ft 514 kts 186°
2026-05-04 11:28 50.71527 -114.24096 27621 ft 519 kts 186°
2026-05-04 11:28 50.67865 -114.24364 28133 ft 522 kts 188°
2026-05-04 11:28 50.64270 -114.25106 28671 ft 522 kts 194°
2026-05-04 11:28 50.60725 -114.26325 29193 ft 523 kts 200°
2026-05-04 11:29 50.57266 -114.28066 29625 ft 525 kts 204°
2026-05-04 11:29 50.53806 -114.29944 30028 ft 530 kts 204°
2026-05-04 11:29 50.50308 -114.31813 30387 ft 535 kts 204°
2026-05-04 11:29 50.46774 -114.33652 30744 ft 537 kts 203°
2026-05-04 11:31 50.22073 -114.46291 34213 ft 532 kts 202°
2026-05-04 11:33 49.97617 -114.58612 36816 ft 528 kts 202°
2026-05-04 11:33 49.94126 -114.60357 37186 ft 528 kts 202°
2026-05-04 11:33 49.90637 -114.62098 37472 ft 529 kts 202°
2026-05-04 11:34 49.87094 -114.63864 37760 ft 529 kts 202°
2026-05-04 11:34 49.83600 -114.65604 38053 ft 530 kts 202°
2026-05-04 11:34 49.76563 -114.69103 37999 ft 531 kts 202°
2026-05-04 11:35 49.69561 -114.72519 38045 ft 529 kts 200°
2026-05-04 11:35 49.62325 -114.74910 38060 ft 530 kts 194°
2026-05-04 11:36 49.55090 -114.77014 38062 ft 531 kts 194°
2026-05-04 11:36 49.47847 -114.79167 38039 ft 531 kts 194°
2026-05-04 11:37 49.40603 -114.81351 38043 ft 532 kts 194°
2026-05-04 11:37 49.33302 -114.83556 38018 ft 532 kts 194°
2026-05-04 11:38 49.26055 -114.85732 38036 ft 532 kts 194°
2026-05-04 11:38 49.18807 -114.87900 38009 ft 530 kts 194°
2026-05-04 11:39 49.11577 -114.90060 37991 ft 531 kts 194°
2026-05-04 11:41 48.86680 -114.99755 37966 ft 523 kts 201°
2026-05-04 11:41 48.79750 -115.03085 37968 ft 524 kts 201°
2026-05-04 11:42 48.72810 -115.06364 37951 ft 523 kts 200°
2026-05-04 11:42 48.65818 -115.09644 37941 ft 524 kts 200°
2026-05-04 11:43 48.58867 -115.12894 37909 ft 524 kts 200°
2026-05-04 11:43 48.51926 -115.16133 37931 ft 522 kts 200°
2026-05-04 11:44 48.44996 -115.19359 37905 ft 522 kts 200°
2026-05-04 11:44 48.38014 -115.22600 37912 ft 523 kts 200°
2026-05-04 11:45 48.31064 -115.25818 37836 ft 524 kts 200°
2026-05-04 11:45 48.24112 -115.29027 37864 ft 524 kts 200°
2026-05-04 11:46 48.17149 -115.32230 37859 ft 525 kts 200°
2026-05-04 11:46 48.10128 -115.35452 37838 ft 526 kts 200°
2026-05-04 11:47 48.03140 -115.38652 37835 ft 527 kts 200°
2026-05-04 11:47 47.96145 -115.41842 37756 ft 526 kts 199°
2026-05-04 11:48 47.89173 -115.45015 37798 ft 525 kts 199°
2026-05-04 11:48 47.82162 -115.48196 37818 ft 524 kts 199°
2026-05-04 11:49 47.75191 -115.51348 37797 ft 525 kts 199°
2026-05-04 11:49 47.68224 -115.54494 37777 ft 524 kts 199°
2026-05-04 11:50 47.61212 -115.57650 37773 ft 524 kts 199°
2026-05-04 11:50 47.54255 -115.60771 37760 ft 522 kts 199°
2026-05-04 11:51 47.47318 -115.63877 37762 ft 522 kts 199°
2026-05-04 11:51 47.40424 -115.67090 37762 ft 519 kts 201°
2026-05-04 11:52 47.33618 -115.70535 37761 ft 517 kts 201°
2026-05-04 11:52 47.26794 -115.73999 37780 ft 516 kts 201°
2026-05-04 11:53 47.20017 -115.77381 37783 ft 515 kts 200°
2026-05-04 11:53 47.13235 -115.80731 37777 ft 515 kts 200°
2026-05-04 11:55 46.87142 -115.93540 37818 ft 519 kts 200°
2026-05-04 11:56 46.80260 -115.96897 37828 ft 519 kts 200°
2026-05-04 11:56 46.73413 -116.00227 37841 ft 520 kts 200°
2026-05-04 11:57 46.66564 -116.03552 37832 ft 520 kts 200°
2026-05-04 11:57 46.59728 -116.06860 37860 ft 518 kts 200°
2026-05-04 11:58 46.52901 -116.10155 37862 ft 518 kts 200°
2026-05-04 11:58 46.46037 -116.13460 37862 ft 517 kts 200°
2026-05-04 11:59 46.39237 -116.16726 37868 ft 515 kts 199°
2026-05-04 11:59 46.32456 -116.19974 37885 ft 514 kts 199°
2026-05-04 12:00 46.25686 -116.23205 37887 ft 513 kts 199°
2026-05-04 12:00 46.18883 -116.26447 37897 ft 512 kts 199°
2026-05-04 12:01 46.12141 -116.29651 37897 ft 511 kts 199°
2026-05-04 12:02 45.88627 -116.40760 37902 ft 506 kts 198°
2026-05-04 12:03 45.81951 -116.43895 37889 ft 506 kts 198°
2026-05-04 12:03 45.75241 -116.47039 37880 ft 505 kts 198°
2026-05-04 12:04 45.68585 -116.50150 37891 ft 504 kts 198°
2026-05-04 12:04 45.61931 -116.53251 37902 ft 505 kts 198°
2026-05-04 12:05 45.55264 -116.56352 37909 ft 505 kts 198°
2026-05-04 12:05 45.48539 -116.59472 37885 ft 507 kts 198°
2026-05-04 12:06 45.41843 -116.62570 37914 ft 507 kts 198°
2026-05-04 12:06 45.35147 -116.65660 37909 ft 507 kts 198°
2026-05-04 12:07 45.28425 -116.68755 37912 ft 505 kts 198°
2026-05-04 12:07 45.21762 -116.71813 37908 ft 504 kts 198°
2026-05-04 12:08 45.15099 -116.74868 37891 ft 505 kts 198°
2026-05-04 12:08 45.12654 -116.75987 37904 ft 505 kts 198°
2026-05-04 12:09 45.05986 -116.79032 37898 ft 504 kts 198°
2026-05-04 12:09 44.99268 -116.82091 37880 ft 505 kts 198°
2026-05-04 12:10 44.92598 -116.85121 37888 ft 504 kts 198°
2026-05-04 12:10 44.85937 -116.88139 37869 ft 503 kts 197°
2026-05-04 12:11 44.79250 -116.91163 37878 ft 502 kts 197°
2026-05-04 12:11 44.72610 -116.94159 37882 ft 502 kts 197°
2026-05-04 12:12 44.65975 -116.97144 37858 ft 501 kts 197°
2026-05-04 12:12 44.59352 -117.00117 37863 ft 500 kts 197°
2026-05-04 12:14 44.32899 -117.11920 37826 ft 496 kts 197°
2026-05-04 12:15 44.26336 -117.14831 37838 ft 496 kts 197°
2026-05-04 12:15 44.19777 -117.17733 37854 ft 496 kts 197°
2026-05-04 12:16 44.13216 -117.20630 37821 ft 496 kts 197°
2026-05-04 12:16 44.06613 -117.23539 37831 ft 495 kts 197°
2026-05-04 12:17 44.00051 -117.26422 37829 ft 496 kts 197°
2026-05-04 12:17 43.93491 -117.29298 37826 ft 495 kts 197°
2026-05-04 12:18 43.86932 -117.32167 37836 ft 495 kts 197°
2026-05-04 12:18 43.80328 -117.35049 37836 ft 495 kts 197°
2026-05-04 12:19 43.73770 -117.37904 37847 ft 495 kts 196°
2026-05-04 12:19 43.67222 -117.40748 37838 ft 494 kts 196°
2026-05-04 12:20 43.60687 -117.43581 37847 ft 493 kts 196°
2026-05-04 12:20 43.54121 -117.46420 37849 ft 492 kts 196°
2026-05-04 12:21 43.47613 -117.49228 37852 ft 491 kts 196°
2026-05-04 12:21 43.41117 -117.52024 37857 ft 490 kts 196°
2026-05-04 12:22 43.34635 -117.54808 37861 ft 489 kts 196°
2026-05-04 12:22 43.28121 -117.57599 37867 ft 488 kts 196°
2026-05-04 12:23 43.21654 -117.60364 37866 ft 488 kts 196°
2026-05-04 12:23 43.15189 -117.63122 37878 ft 488 kts 196°
2026-05-04 12:24 43.08721 -117.65875 37880 ft 488 kts 196°
2026-05-04 12:24 43.02212 -117.68639 37874 ft 487 kts 196°
2026-05-04 12:25 42.95749 -117.71379 37870 ft 487 kts 196°
2026-05-04 12:25 42.89292 -117.74109 37872 ft 487 kts 196°
2026-05-04 12:26 42.82839 -117.76832 37895 ft 486 kts 196°
2026-05-04 12:26 42.76350 -117.79564 37897 ft 486 kts 196°
2026-05-04 12:27 42.69912 -117.82270 37914 ft 485 kts 196°
2026-05-04 12:27 42.63480 -117.84967 37937 ft 485 kts 196°
2026-05-04 12:28 42.57115 -117.87901 37926 ft 484 kts 203°
2026-05-04 12:28 42.50957 -117.91700 37930 ft 484 kts 204°
2026-05-04 12:29 42.44856 -117.95507 37913 ft 483 kts 204°
2026-05-04 12:29 42.38749 -117.99272 37904 ft 483 kts 204°
2026-05-04 12:30 42.32639 -118.03004 37879 ft 483 kts 204°
2026-05-04 12:30 42.26531 -118.06720 37858 ft 482 kts 203°
2026-05-04 12:31 42.20388 -118.10451 37851 ft 482 kts 203°
2026-05-04 12:31 42.14290 -118.14148 37856 ft 481 kts 203°
2026-05-04 12:32 42.05144 -118.19679 37854 ft 481 kts 203°
2026-05-04 12:33 41.99043 -118.23359 37835 ft 482 kts 203°
2026-05-04 12:33 41.92900 -118.27056 37865 ft 481 kts 203°
2026-05-04 12:34 41.86800 -118.30720 37849 ft 481 kts 203°
2026-05-04 12:34 41.80706 -118.34372 37845 ft 481 kts 203°
2026-05-04 12:35 41.74577 -118.38038 37856 ft 480 kts 203°
2026-05-04 12:35 41.68494 -118.41668 37870 ft 479 kts 203°
2026-05-04 12:36 41.62420 -118.45286 37851 ft 478 kts 203°
2026-05-04 12:36 41.56357 -118.48889 37856 ft 477 kts 203°
2026-05-04 12:37 41.50262 -118.52505 37852 ft 477 kts 203°
2026-05-04 12:37 41.44214 -118.56085 37851 ft 476 kts 202°
2026-05-04 12:38 41.38174 -118.59653 37858 ft 475 kts 203°
2026-05-04 12:38 41.32102 -118.63233 37860 ft 475 kts 203°
2026-05-04 12:39 41.26074 -118.66779 37860 ft 475 kts 203°
2026-05-04 12:39 41.20047 -118.70317 37848 ft 475 kts 203°
2026-05-04 12:40 41.14018 -118.73850 37852 ft 475 kts 203°
2026-05-04 12:40 41.08951 -118.76813 37849 ft 475 kts 203°
2026-05-04 12:41 41.02915 -118.80337 37839 ft 475 kts 203°
2026-05-04 12:41 40.96875 -118.83856 37835 ft 475 kts 203°
2026-05-04 12:42 40.90791 -118.87393 37835 ft 476 kts 203°
2026-05-04 12:42 40.84742 -118.90903 37833 ft 476 kts 203°
2026-05-04 12:43 40.78691 -118.94408 37829 ft 476 kts 203°
2026-05-04 12:43 40.72637 -118.97906 37832 ft 476 kts 203°
2026-05-04 12:44 40.66537 -119.01425 37831 ft 476 kts 203°
2026-05-04 12:44 40.60474 -119.04917 37833 ft 477 kts 203°
2026-05-04 12:45 40.54408 -119.08401 37838 ft 476 kts 203°
2026-05-04 12:45 40.48305 -119.11898 37828 ft 476 kts 203°
2026-05-04 12:46 40.42250 -119.15362 37830 ft 475 kts 203°
2026-05-04 12:46 40.36203 -119.18815 37827 ft 475 kts 203°
2026-05-04 12:47 40.30129 -119.22276 37843 ft 473 kts 204°
2026-05-04 12:47 40.24112 -119.25698 37847 ft 472 kts 203°
2026-05-04 12:48 40.18106 -119.29108 37841 ft 471 kts 203°
2026-05-04 12:48 40.12069 -119.32529 37849 ft 470 kts 204°
2026-05-04 12:49 40.06086 -119.35912 37855 ft 469 kts 204°
2026-05-04 12:49 40.00114 -119.39283 37856 ft 468 kts 204°
2026-05-04 12:50 39.94152 -119.42642 37864 ft 467 kts 204°
2026-05-04 12:50 39.88154 -119.46014 37860 ft 467 kts 204°
2026-05-04 12:51 39.82209 -119.49351 37885 ft 466 kts 204°
2026-05-04 12:51 39.76274 -119.52675 37912 ft 465 kts 204°
2026-05-04 12:52 39.70346 -119.55990 37931 ft 465 kts 204°
2026-05-04 12:52 39.64416 -119.59300 37940 ft 465 kts 204°
2026-05-04 12:53 39.58452 -119.62623 37962 ft 464 kts 204°
2026-05-04 12:53 39.52789 -119.66563 37972 ft 463 kts 214°
2026-05-04 12:54 39.47743 -119.71694 37974 ft 463 kts 222°
2026-05-04 12:54 39.42992 -119.77283 37972 ft 463 kts 222°
2026-05-04 12:55 39.38209 -119.82903 37975 ft 462 kts 222°
2026-05-04 12:55 39.33448 -119.88441 37959 ft 461 kts 222°
2026-05-04 12:56 39.28687 -119.93949 37957 ft 460 kts 222°
2026-05-04 12:56 39.23928 -119.99444 37952 ft 460 kts 222°
2026-05-04 12:57 39.19137 -120.04966 38003 ft 460 kts 222°
2026-05-04 12:57 39.14380 -120.10440 38003 ft 459 kts 222°
2026-05-04 12:58 39.09651 -120.15872 37984 ft 459 kts 222°
2026-05-04 12:58 39.04883 -120.21339 37989 ft 458 kts 222°
2026-05-04 12:59 39.00119 -120.26788 37968 ft 458 kts 221°
2026-05-04 12:59 38.95130 -120.31848 37987 ft 457 kts 218°
2026-05-04 13:00 38.90051 -120.36756 37949 ft 457 kts 217°
2026-05-04 13:00 38.87513 -120.39209 37660 ft 453 kts 217°
2026-05-04 13:00 38.85016 -120.41628 37199 ft 448 kts 217°
2026-05-04 13:00 38.82526 -120.44044 36510 ft 449 kts 217°
2026-05-04 13:01 38.80031 -120.46466 35906 ft 448 kts 217°
2026-05-04 13:01 38.77564 -120.48862 35560 ft 442 kts 217°
2026-05-04 13:01 38.75129 -120.51225 35197 ft 436 kts 217°
2026-05-04 13:01 38.72720 -120.53561 34749 ft 433 kts 217°
2026-05-04 13:02 38.70323 -120.55883 34255 ft 431 kts 217°
2026-05-04 13:02 38.67931 -120.58199 33725 ft 430 kts 217°
2026-05-04 13:02 38.65554 -120.60497 33119 ft 428 kts 217°
2026-05-04 13:02 38.63174 -120.62797 32523 ft 428 kts 216°
2026-05-04 13:03 38.60795 -120.65093 31916 ft 429 kts 216°
2026-05-04 13:03 38.58412 -120.67391 31315 ft 430 kts 216°
2026-05-04 13:03 38.56024 -120.69692 30748 ft 430 kts 216°
2026-05-04 13:03 38.53633 -120.71994 30189 ft 431 kts 215°
2026-05-04 13:04 38.51232 -120.74303 29546 ft 432 kts 215°
2026-05-04 13:04 38.48838 -120.76603 29013 ft 430 kts 215°
2026-05-04 13:04 38.46458 -120.78889 28515 ft 427 kts 215°
2026-05-04 13:04 38.44088 -120.81163 28003 ft 425 kts 215°
2026-05-04 13:05 38.41734 -120.83420 27516 ft 423 kts 215°
2026-05-04 13:05 38.39389 -120.85666 27023 ft 421 kts 214°
2026-05-04 13:05 38.37053 -120.87903 26533 ft 419 kts 214°
2026-05-04 13:05 38.34727 -120.90127 26057 ft 417 kts 214°
2026-05-04 13:06 38.32408 -120.92343 25559 ft 416 kts 214°
2026-05-04 13:06 38.30097 -120.94550 25101 ft 415 kts 214°
2026-05-04 13:06 38.27791 -120.96750 24630 ft 414 kts 214°
2026-05-04 13:06 38.25489 -120.98944 24159 ft 413 kts 214°
2026-05-04 13:07 38.23155 -121.01166 23677 ft 428 kts 213°
2026-05-04 13:07 38.20612 -121.03268 23110 ft 445 kts 206°
2026-05-04 13:07 38.17804 -121.05070 22553 ft 459 kts 200°
2026-05-04 13:07 38.14790 -121.06570 22045 ft 471 kts 198°
2026-05-04 13:08 38.11699 -121.08028 21640 ft 475 kts 198°
2026-05-04 13:08 38.08609 -121.09463 21178 ft 469 kts 198°
2026-05-04 13:08 38.05562 -121.10879 20563 ft 462 kts 198°
2026-05-04 13:08 38.02577 -121.12282 20053 ft 453 kts 198°
2026-05-04 13:09 37.99657 -121.13665 19611 ft 443 kts 199°
2026-05-04 13:09 37.96808 -121.15024 19237 ft 432 kts 199°
2026-05-04 13:09 37.94017 -121.16358 18952 ft 430 kts 199°
2026-05-04 13:09 37.91134 -121.17734 18942 ft 450 kts 199°
2026-05-04 13:10 37.88251 -121.19111 18015 ft 441 kts 199°
2026-05-04 13:10 37.85388 -121.20480 16724 ft 432 kts 199°
2026-05-04 13:10 37.82620 -121.21804 15595 ft 419 kts 199°
2026-05-04 13:10 37.79931 -121.23088 14566 ft 407 kts 198°
2026-05-04 13:11 37.77318 -121.24333 13593 ft 395 kts 198°
2026-05-04 13:11 37.74781 -121.25539 12605 ft 387 kts 199°
2026-05-04 13:11 37.72360 -121.26960 11711 ft 385 kts 214°
2026-05-04 13:11 37.70499 -121.29354 11239 ft 381 kts 234°
2026-05-04 13:12 37.69320 -121.32304 10884 ft 374 kts 250°
2026-05-04 13:12 37.68551 -121.35421 10536 ft 370 kts 252°
2026-05-04 13:12 37.67777 -121.38524 10189 ft 371 kts 251°
2026-05-04 13:12 37.66975 -121.41621 9988 ft 371 kts 251°
2026-05-04 13:13 37.66083 -121.44664 9967 ft 371 kts 244°
2026-05-04 13:13 37.64750 -121.47452 9978 ft 372 kts 232°
2026-05-04 13:13 37.63069 -121.49928 9978 ft 372 kts 228°
2026-05-04 13:13 37.61405 -121.52397 9964 ft 363 kts 230°
2026-05-04 13:14 37.59858 -121.54827 9954 ft 347 kts 231°
2026-05-04 13:14 37.58397 -121.57163 9786 ft 335 kts 231°
2026-05-04 13:14 37.56978 -121.59433 9605 ft 325 kts 230°
2026-05-04 13:14 37.55595 -121.61640 9231 ft 311 kts 230°
2026-05-04 13:15 37.54380 -121.63773 8814 ft 291 kts 241°
2026-05-04 13:15 37.53787 -121.66144 8288 ft 280 kts 257°
2026-05-04 13:15 37.53404 -121.68555 7866 ft 282 kts 257°
2026-05-04 13:15 37.52994 -121.71018 7428 ft 285 kts 256°
2026-05-04 13:16 37.52581 -121.73466 7030 ft 287 kts 255°
2026-05-04 13:16 37.52161 -121.75932 6580 ft 290 kts 255°
2026-05-04 13:16 37.51735 -121.78424 6122 ft 292 kts 255°
2026-05-04 13:16 37.51319 -121.80859 5664 ft 276 kts 255°
2026-05-04 13:17 37.50920 -121.83179 5359 ft 263 kts 255°
2026-05-04 13:17 37.50544 -121.85358 4998 ft 251 kts 255°
2026-05-04 13:17 37.50164 -121.87543 4567 ft 253 kts 255°
2026-05-04 13:17 37.49782 -121.89742 4152 ft 254 kts 256°
2026-05-04 13:18 37.49534 -121.91180 3899 ft 254 kts 256°
2026-05-04 13:18 37.49167 -121.93301 3498 ft 240 kts 256°
2026-05-04 13:18 37.48822 -121.95284 3145 ft 223 kts 257°
2026-05-04 13:18 37.48507 -121.97099 2831 ft 203 kts 256°
2026-05-04 13:19 37.48214 -121.98779 2534 ft 193 kts 256°
2026-05-04 13:19 37.47931 -122.00405 2236 ft 188 kts 256°
2026-05-04 13:19 37.47398 -122.01821 1940 ft 176 kts 221°
2026-05-04 13:19 37.46303 -122.02341 1866 ft 171 kts 176°
2026-05-04 13:20 37.45187 -122.01896 1835 ft 168 kts 160°
2026-05-04 13:20 37.44132 -122.01268 1787 ft 167 kts 148°
2026-05-04 13:20 37.43165 -122.00434 1666 ft 173 kts 146°
2026-05-04 13:20 37.42229 -121.99497 1445 ft 171 kts 141°
2026-05-04 13:21 37.41359 -121.98545 1218 ft 160 kts 140°
2026-05-04 13:21 37.40550 -121.97658 999 ft 150 kts 139°
2026-05-04 13:21 37.39767 -121.96802 793 ft 150 kts 139°
2026-05-04 13:21 37.38977 -121.95941 599 ft 151 kts 139°
2026-05-04 13:22 37.38182 -121.95080 380 ft 149 kts 139°
2026-05-04 13:22 37.37412 -121.94235 172 ft 144 kts 140°
2026-05-04 13:22 37.36680 -121.93440 86 ft 131 kts 139°
2026-05-04 13:22 37.36114 -121.92819 70 ft 82 kts 139°
2026-05-04 13:23 37.35848 -121.92528 69 ft 18 kts 136°
2026-05-04 13:23 37.35817 -121.92415 73 ft 14 kts 81°
2026-05-04 13:23 37.35867 -121.92311 70 ft 14 kts 50°
2026-05-04 13:23 37.35932 -121.92218 69 ft 13 kts 49°
2026-05-04 13:24 37.35996 -121.92136 68 ft 12 kts 30°
2026-05-04 13:24 37.36050 -121.92171 67 ft 10 kts 317°
2026-05-04 13:24 37.36117 -121.92246 67 ft 14 kts 319°
2026-05-04 13:25 37.36267 -121.92409 72 ft 15 kts 319°
2026-05-04 13:25 37.36343 -121.92493 67 ft 14 kts 319°
2026-05-04 13:25 37.36419 -121.92575 69 ft 15 kts 319°
2026-05-04 13:25 37.36497 -121.92661 71 ft 15 kts 319°
2026-05-04 13:26 37.36567 -121.92736 71 ft 12 kts 319°
2026-05-04 13:26 37.36629 -121.92805 67 ft 12 kts 319°
2026-05-04 13:26 37.36689 -121.92870 67 ft 10 kts 319°
2026-05-04 13:26 37.36732 -121.92910 70 ft 5 kts 345°
2026-05-04 13:27 37.36756 -121.92897 67 ft 4 kts 41°
2026-05-04 13:27 37.36772 -121.92873 67 ft 2 kts 49°
2026-05-04 13:27 37.36780 -121.92862 71 ft 1 kts 49°
2026-05-04 13:27 37.36780 -121.92861 71 ft 0 kts 49°